OBJECT AQ, 61773

Orbit data source: Space-Track

You're viewing an Uncataloged Satellite

Recently launched and/or uncataloged satellites may have evolving metadata. Metadata may include but not limited to: Owner, Maufacturer, Bus, Motor, and Mission.

OBJECT AQ, 61773 is a satellite in SSO that was launched on Mon, 04 Nov 2024 UTC via a SOYUZ-2-1B launch vehicle from the Vostochny Cosmodrome (VOSTO). Unknown objects in Earth's orbit typically refer to objects detected orbiting the Earth but have not yet been identified or cataloged. These objects could be anything from previously untracked satellites, spent rocket stages, debris from satellite collisions, or even natural meteoroids temporarily captured by Earth's gravity.

Loading next visibility...
Identifier
61773, 2024-199AQ
Orbit
SSO
Country
Flag of TBDTBD
Related business
Manufacturer
Sputniks
Mission
Operational Commercial Communications
Bus & Motor
CUBESAT 3U?, Unknown motor
Mass
3 kg wet, 3 kg dry
Launch date (UTC)
2024-11-04 (1 year ago)
Launch vehicle
SOYUZ-2-1B
Launch site
Vostochny Cosmodrome (VOSTO)
Object type
Unknown
Shape & HBR
Box, 0.1 m
Radar Cross Section
0.035 m², Small (<0.1 m²)

Expand to show TLE details & history
Last TLE update: 14 hours ago

TLE from 14 hours ago
0 OBJECT AQ
1 61773U 24199AQ  25296.93883978  .00031870  00000-0  80427-3 0  9991
2 61773  97.3262 165.0920 0013294  74.2359 286.0352 15.39692962 97876
Epoch: 2025-10-23T22:31Z
TLE epoch observation values (Epoch: 2025-10-23T22:31:55.756Z)
Latitude
Longitude
154.51877°
Altitude
447.64 km
Speed
7.645 km/s
True Right ascension
11h 00m 22s
True Declination
0° 00' 00"
Sunlit
Object was in daylight at epoch
Visualization orbit readout
Latitude
Unknown
Longitude
Unknown
Altitude
Unknown
Speed
Unknown
Apparent Right ascension
Unknown
Apparent Declination
Unknown
Sunlit
N/A
Visualization observer readout
Local Sidereal Time
07:49:13
Azimuth
Unknown
Elevation
Unknown
Doppler factor
Unknown
Orbital elements
Apogee altitude
453.022 km
Perigee altitude
434.883 km
Semi-major axis
6,822.09 km
Eccentricity
0.00133
Inclination
97.3262°
RAAN
165.092°
Arg. of periapsis
74.2359°
True anomaly
285.88872°
Mean anomaly
286.0352°
Eccentric anomaly
285.96197°
Mean motion
3.85183 °/min
Orbital period
93.46 mins
BSTAR
0.00080427
Loading maneuver chart data...
Computing Atmospheric mass density...
Loading historical data...
Loading historical data...
Loading historical data...
Loading historical data...
Loading historical data...
Loading historical data...
Loading historical data...

Documentation

Showing up to 5 results
|